Location: Bednik
(45.3500°N, 16.3833°E)
Time: 04:40:18
(UTC+00:00)

Cosmos 1707 Rocket - Pass Details

Date: 08 August 2020
Orbit: 604 x 632 km, 82.5° (Epoch: 19 September)

Event Time Altitude Azimuth Distance (km) Brightness Sun altitude
Rises 19:25:59 0° 354° (N) 2,886 7.7 -12.0°
Reaches altitude 10° 19:28:15 10° 357° (N) 1,973 6.7 -12.3°
Maximum altitude 19:32:34 63° 79° (E) 680 3.6 -12.9°
Enters shadow 19:35:47 17° 158° (SSE) 1,531 5.1 -13.3°
